Weather History for Houlton, ME

Change the Weather History Date:

Monday, January 6, 2014

  Actual Average Record
Temperature  
Mean Temperature 37 °F 12 °F  
Max Temperature 50 °F 23 °F 50 °F (2007)
Min Temperature 23 °F 2 °F -24 °F (1976)
Degree Days  
Heating Degree Days 28 52  
Month to date heating degree days 375 311  
Since 1 July heating degree days 3937 3831  
Cooling Degree Days 0 0  
Month to date cooling degree days 0 0  
Year to date cooling degree days 0 0  
Moisture  
Dew Point 35 °F    
Average Humidity 86    
Maximum Humidity 93    
Minimum Humidity 78    
Precipitation  
Precipitation 1.12 in 0.09 in 1.28 in (1949)
Month to date precipitation 1.12 0.55  
Year to date precipitation 1.12 0.55  
Sea Level Pressure  
Sea Level Pressure 29.45 in    
Wind  
Wind Speed 12 mph (SE)    
Max Wind Speed 24 mph    
Max Gust Speed 35 mph    
Visibility 4 miles    
Events Rain , Snow    
T = Trace of Precipitation, MM = Missing Value Source: NWS Daily Summary

Daily Weather History Graph

Daily Weather History Graph

Search for Another Location

Airport:

Trip Planner

Search our weather history database for the weather conditions in past years. The results will help you decide how hot, cold, wet, or windy it might be!

Date:

Astronomy

Jan. 06, 2014 Rise Set
Actual Time 7:13 AM EST 4:01 PM EST
Civil Twilight 6:38 AM EST 4:35 PM EST
Nautical Twilight 6:01 AM EST 5:13 PM EST
Astronomical Twilight 5:24 AM EST 5:49 PM EST
Moon 10:05 AM EST (1/6) 10:53 PM EST (1/6)
Length of Visible Light 9h 56m
Length of Day
8h 48m
Waxing Crescent, 34% of the Moon is Illuminated
Jan 6
Waxing Crescent
Jan 7
First Quarter
Jan 15
Full
Jan 24
Last Quarter
Jan 30
New

Hourly Weather History & Observations

Time (EST) Temp. Windchill Dew Point Humidity Pressure Visibility Wind Dir Wind Speed Gust Speed Precip Events Conditions
12:53 AM 24.1 °F 18.2 °F 19.0 °F 81% 30.14 in 10.0 mi Variable 4.6 mph - N/A   Overcast
1:53 AM 24.1 °F 14.4 °F 19.0 °F 81% 30.13 in 10.0 mi ESE 9.2 mph 18.4 mph N/A   Overcast
2:53 AM 25.0 °F 15.5 °F 21.0 °F 85% 30.06 in 10.0 mi ESE 9.2 mph - N/A   Overcast
3:24 AM 26.1 °F 16.8 °F 21.9 °F 84% 29.99 in 6.0 mi ESE 9.2 mph - 0.00 in Rain Light Freezing Rain
3:51 AM 26.6 °F 16.2 °F 23.0 °F 86% 29.97 in 10.0 mi ESE 11.5 mph 19.6 mph 0.01 in   Overcast
3:53 AM 26.1 °F 16.8 °F 23.0 °F 88% 29.99 in 10.0 mi ESE 9.2 mph 18.4 mph 0.01 in   Overcast
4:45 AM 26.1 °F 15.0 °F 23.0 °F 88% 29.91 in 10.0 mi ESE 12.7 mph 19.6 mph N/A   Overcast
4:53 AM 27.0 °F 15.2 °F 24.1 °F 89% 29.93 in 7.0 mi ESE 15.0 mph 21.9 mph 0.00 in Rain Light Freezing Rain
5:21 AM 28.0 °F 17.5 °F 25.0 °F 88% 29.87 in 8.0 mi ESE 12.7 mph 26.5 mph 0.01 in Rain Light Freezing Rain
5:53 AM 28.0 °F 17.5 °F 26.1 °F 92% 29.87 in 4.0 mi ESE 12.7 mph 23.0 mph 0.01 in Rain Light Freezing Rain
6:03 AM 28.9 °F 19.8 °F 26.1 °F 89% 29.83 in 4.0 mi SE 10.4 mph 19.6 mph 0.00 in Rain Light Freezing Rain
6:36 AM 30.0 °F 20.0 °F 28.0 °F 92% 29.78 in 2.5 mi ESE 12.7 mph 21.9 mph 0.03 in Rain Light Freezing Rain
6:42 AM 30.0 °F 18.7 °F 28.0 °F 92% 29.77 in 3.0 mi SE 16.1 mph 26.5 mph 0.04 in Rain Light Freezing Rain
6:53 AM 30.9 °F 22.2 °F 28.9 °F 92% 29.79 in 4.0 mi SE 10.4 mph 27.6 mph 0.04 in Rain Light Freezing Rain
7:49 AM 32.0 °F 24.2 °F 30.2 °F 93% 29.73 in 2.0 mi SE 9.2 mph 21.9 mph 0.05 in Rain Light Freezing Rain
7:53 AM 32.0 °F 23.0 °F 30.0 °F 92% 29.75 in 1.8 mi ESE 11.5 mph 19.6 mph 0.07 in Rain Light Freezing Rain
8:17 AM 32.0 °F 24.2 °F 30.0 °F 92% 29.70 in 2.0 mi ESE 9.2 mph - 0.07 in Rain Light Freezing Rain
8:37 AM 32.0 °F 21.6 °F 30.0 °F 92% 29.67 in 3.0 mi ESE 15.0 mph 24.2 mph 0.08 in   Overcast
8:44 AM 32.0 °F 22.5 °F 30.0 °F 92% 29.66 in 2.5 mi ESE 12.7 mph 23.0 mph 0.08 in   Overcast
8:53 AM 32.0 °F 23.0 °F 30.9 °F 96% 29.67 in 2.5 mi ESE 11.5 mph 20.7 mph 0.08 in   Overcast
9:02 AM 33.1 °F 23.9 °F 30.9 °F 92% 29.64 in 1.8 mi ESE 12.7 mph 20.7 mph 0.01 in Rain Light Freezing Rain
9:12 AM 33.1 °F 24.4 °F 30.9 °F 92% 29.63 in 2.0 mi ESE 11.5 mph 21.9 mph 0.02 in Rain Light Freezing Rain
9:14 AM 33.1 °F 24.4 °F 32.0 °F 96% 29.63 in 1.8 mi ESE 11.5 mph 21.9 mph 0.03 in Rain Light Freezing Rain
9:33 AM 34.0 °F 25.0 °F 32.0 °F 92% 29.60 in 2.0 mi ESE 12.7 mph 21.9 mph 0.10 in Rain Light Freezing Rain
9:42 AM 35.1 °F 25.5 °F 33.1 °F 92% 29.60 in 2.5 mi SE 15.0 mph 21.9 mph 0.12 in Rain Rain
9:49 AM 35.6 °F 26.6 °F 33.8 °F 93% 29.58 in 3.0 mi ESE 13.8 mph 23.0 mph 0.14 in Rain Rain
9:53 AM 36.0 °F 27.1 °F 34.0 °F 93% 29.61 in 3.0 mi SE 13.8 mph 25.3 mph 0.16 in Rain Rain
9:57 AM 36.0 °F 28.0 °F 34.0 °F 93% 29.58 in 2.5 mi ESE 11.5 mph 25.3 mph 0.02 in Rain Rain
10:08 AM 36.0 °F 27.1 °F 34.0 °F 93% 29.56 in 1.5 mi SE 13.8 mph 26.5 mph 0.08 in Rain Heavy Rain
10:15 AM 37.0 °F 28.1 °F 35.1 °F 93% 29.54 in 3.0 mi SE 15.0 mph 24.2 mph 0.09 in Rain Light Rain
10:28 AM 37.0 °F 27.4 °F 35.1 °F 93% 29.53 in 1.8 mi SE 17.3 mph 29.9 mph 0.14 in Rain Heavy Rain
10:43 AM 37.9 °F 28.5 °F 36.0 °F 93% 29.50 in 2.5 mi ESE 17.3 mph 26.5 mph 0.19 in Rain Rain
10:53 AM 37.9 °F 28.2 °F 36.0 °F 93% 29.50 in 3.0 mi SE 18.4 mph 26.5 mph 0.21 in Rain Light Rain
10:59 AM 39.0 °F 29.9 °F 37.0 °F 93% 29.47 in 2.0 mi SE 17.3 mph 29.9 mph 0.01 in Rain Rain
11:08 AM 39.0 °F 31.0 °F 37.0 °F 93% 29.46 in 1.8 mi SE 13.8 mph 29.9 mph 0.03 in Rain Rain
11:12 AM 39.0 °F 30.6 °F 37.0 °F 93% 29.46 in 2.0 mi SE 15.0 mph 28.8 mph 0.03 in Rain Light Rain
11:18 AM 39.9 °F 31.8 °F 37.9 °F 93% 29.45 in 2.5 mi SE 15.0 mph 24.2 mph 0.03 in Rain Light Rain
11:25 AM 39.9 °F 31.4 °F 37.9 °F 93% 29.44 in 4.0 mi SE 16.1 mph 26.5 mph 0.04 in Rain Light Rain
11:35 AM 41.0 °F 33.1 °F 37.9 °F 89% 29.43 in 4.0 mi SE 15.0 mph 26.5 mph 0.04 in Rain Light Rain
11:53 AM 43.0 °F 35.1 °F 39.9 °F 89% 29.41 in 5.0 mi SE 17.3 mph 34.5 mph 0.04 in Rain Light Rain
12:13 PM 43.0 °F 36.0 °F 41.0 °F 93% 29.36 in 2.5 mi SE 13.8 mph 27.6 mph 0.00 in Rain Light Rain
12:23 PM 43.0 °F 35.4 °F 41.0 °F 93% 29.35 in 3.0 mi SE 16.1 mph 27.6 mph 0.01 in Rain Light Rain
12:53 PM 44.1 °F 37.7 °F 42.1 °F 93% 29.33 in 3.0 mi SSE 12.7 mph 23.0 mph 0.01 in Rain Light Rain
1:08 PM 45.0 °F 38.5 °F 43.0 °F 93% 29.29 in 2.0 mi SE 13.8 mph 26.5 mph 0.00 in Rain Light Rain
1:30 PM 46.0 °F 38.8 °F 44.1 °F 93% 29.27 in 3.0 mi SSE 18.4 mph 27.6 mph 0.04 in Rain Light Rain
1:43 PM 46.0 °F 39.0 °F 44.1 °F 93% 29.26 in 2.5 mi SSE 17.3 mph 31.1 mph 0.07 in Rain Heavy Rain
1:53 PM 46.9 °F - 45.0 °F 93% 29.27 in 7.0 mi SSE 15.0 mph 29.9 mph 0.07 in Rain Light Rain
2:10 PM 48.0 °F - 46.0 °F 93% 29.24 in 2.0 mi SSE 17.3 mph 28.8 mph 0.02 in Rain Light Rain
2:18 PM 48.0 °F - 46.0 °F 93% 29.24 in 2.0 mi SSE 16.1 mph 34.5 mph 0.04 in Rain Rain
2:45 PM 48.0 °F - 46.0 °F 93% 29.22 in 1.5 mi SSE 18.4 mph 31.1 mph 0.17 in Rain Heavy Rain
2:53 PM 48.0 °F - 46.0 °F 93% 29.23 in 3.0 mi SSE 18.4 mph 31.1 mph 0.18 in Rain Light Rain
3:25 PM 48.9 °F - 46.9 °F 93% 29.19 in 9.0 mi South 15.0 mph 28.8 mph 0.00 in   Overcast
3:53 PM 48.9 °F - 48.0 °F 97% 29.18 in 4.0 mi SSE 13.8 mph 21.9 mph 0.01 in Rain Light Rain
4:01 PM 50.0 °F - 48.0 °F 93% 29.16 in 3.0 mi South 12.7 mph 24.2 mph 0.00 in Rain Light Rain
4:53 PM 50.0 °F - 48.0 °F 93% 29.15 in 8.0 mi South 11.5 mph 26.5 mph 0.00 in Rain Light Rain
5:34 PM 48.9 °F - 48.0 °F 97% 29.13 in 2.5 mi South 11.5 mph 23.0 mph 0.01 in Rain Light Rain
5:49 PM 48.2 °F - 48.2 °F 100% 29.12 in 2.5 mi South 11.5 mph 18.4 mph 0.04 in Rain Rain
5:53 PM 48.9 °F - 48.0 °F 97% 29.14 in 3.0 mi South 11.5 mph 18.4 mph 0.05 in Rain Rain
6:03 PM 48.0 °F - 46.9 °F 96% 29.12 in 5.0 mi South 12.7 mph 18.4 mph 0.02 in Rain Rain
6:35 PM 48.9 °F - 46.9 °F 93% 29.10 in 9.0 mi South 9.2 mph 18.4 mph 0.02 in Rain Light Rain
6:53 PM 48.9 °F - 46.9 °F 93% 29.11 in 8.0 mi South 8.1 mph 18.4 mph 0.03 in Rain Light Rain
7:01 PM 48.9 °F - 46.9 °F 93% 29.08 in 7.0 mi SSW 6.9 mph - 0.00 in Rain Light Rain
7:10 PM 45.0 °F 40.6 °F 44.1 °F 97% 29.11 in 4.0 mi WNW 8.1 mph - 0.02 in Rain Rain
7:14 PM 44.1 °F 37.7 °F 43.0 °F 96% 29.11 in 2.5 mi WNW 12.7 mph - 0.03 in Rain Rain
7:26 PM 42.1 °F 36.1 °F 39.9 °F 92% 29.14 in 3.0 mi WNW 10.4 mph - 0.05 in Rain Light Rain
7:53 PM 37.0 °F 30.4 °F 35.1 °F 93% 29.17 in 5.0 mi NW 9.2 mph - 0.11 in Rain Rain
8:14 PM 36.0 °F 28.0 °F 33.1 °F 89% 29.15 in 5.0 mi NW 11.5 mph - 0.04 in Rain Rain
8:24 PM 35.1 °F 29.3 °F 32.0 °F 89% 29.16 in 10.0 mi Variable 6.9 mph 19.6 mph 0.04 in Rain Light Rain
8:34 PM 35.1 °F 28.6 °F 32.0 °F 89% 29.15 in 10.0 mi NW 8.1 mph - 0.04 in   Overcast
8:53 PM 34.0 °F 25.5 °F 30.9 °F 89% 29.17 in 10.0 mi WNW 11.5 mph 19.6 mph 0.04 in   Overcast
9:44 PM 33.1 °F 24.9 °F 26.1 °F 75% 29.16 in 10.0 mi WNW 10.4 mph - 0.00 in   Overcast
9:53 PM 32.0 °F 23.0 °F 26.1 °F 79% 29.16 in 10.0 mi WNW 11.5 mph - 0.00 in   Overcast
10:21 PM 30.9 °F 22.2 °F 26.1 °F 82% 29.14 in 3.0 mi WNW 10.4 mph - 0.00 in Snow Light Snow
10:33 PM 30.0 °F 21.7 °F 26.1 °F 85% 29.15 in 2.0 mi WNW 9.2 mph - 0.00 in Snow Light Snow
10:53 PM 30.0 °F 25.2 °F 27.0 °F 88% 29.17 in 2.5 mi Variable 4.6 mph - 0.00 in Snow Light Snow
10:58 PM 30.0 °F 21.7 °F 26.1 °F 85% 29.15 in 3.0 mi West 9.2 mph - 0.00 in Snow Light Snow
11:53 PM 28.0 °F 17.5 °F 19.0 °F 69% 29.20 in 10.0 mi WNW 12.7 mph 21.9 mph 0.00 in   Overcast